AA7F Weather Reports


Display with metric or nautical units.
time (UTC)temp
F
wind
direction
speed
MPH
gust
MPH
rain 1hr
in
rain 24hr
in
rain mn
in
humidity
%
barometer
mb
20260505094058 58 77 7.0 10.0 0.00 0.00 0.00 68 1008.5
20260505093555 57 75 7.0 9.0 0.00 0.00 0.00 73 1008.5
20260505093053 57 46 6.0 10.0 0.00 0.00 0.00 71 1008.5
20260505092550 58 52 7.0 10.0 0.00 0.00 0.00 68 1008.4
20260505092048 59 77 7.0 9.0 0.00 0.00 0.00 68 1008.5
20260505091544 60 66 6.0 10.0 0.00 0.00 0.00 65 1008.6
20260505091043 59 80 7.0 10.0 0.00 0.00 0.00 63 1008.4
20260505090541 59 69 7.0 11.0 0.00 0.00 0.00 65 1008.5
20260505090038 59 98 6.0 8.0 0.00 0.00 0.00 67 1008.5
20260505085536 59 111 6.0 9.0 0.00 0.00 0.00 66 1008.4
20260505085034 59 98 8.0 13.0 0.00 0.00 0.00 69 1008.7
20260505084532 57 115 2.0 7.0 0.00 0.00 0.00 70 1008.4
20260505084030 58 87 5.0 9.0 0.00 0.00 0.00 77 1008.2
20260505083526 60 115 3.0 7.0 0.00 0.00 0.00 67 1008.7
20260505083023 58 59 7.0 11.0 0.00 0.00 0.00 70 1008.4
20260505082519 59 82 3.0 8.0 0.00 0.00 0.00 71 1008.4
20260505082016 55 92 6.0 8.0 0.00 0.00 0.00 81 1008.2
20260505081512 55 102 6.0 8.0 0.00 0.00 0.00 83 1008.5
20260505081009 55 99 5.0 8.0 0.00 0.00 0.00 82 1008.3
20260505080506 56 100 5.0 8.0 0.00 0.00 0.00 80 1008.3
20260505080002 56 91 5.0 7.0 0.00 0.00 0.00 79 1008.3
20260505075458 59 54 3.0 6.0 0.00 0.00 0.00 71 1008.2
20260505074955 57 114 5.0 6.0 0.00 0.00 0.00 69 1008.1
20260505074453 61 74 4.0 6.0 0.00 0.00 0.00 70 1008.1
20260505073950 61 89 3.0 8.0 0.00 0.00 0.00 62 1008.0
20260505073447 59 83 4.0 8.0 0.00 0.00 0.00 71 1007.9
20260505072944 59 65 6.0 10.0 0.00 0.00 0.00 74 1008.2
20260505072440 60 61 8.0 11.0 0.00 0.00 0.00 72 1008.0
20260505071937 61 87 6.0 10.0 0.00 0.00 0.00 67 1008.1
20260505071432 61 86 6.0 9.0 0.00 0.00 0.00 67 1008.1
20260505070931 62 57 8.0 10.0 0.00 0.00 0.00 63 1007.9
20260505070427 63 85 6.0 9.0 0.00 0.00 0.00 61 1007.9
20260505065923 63 99 5.0 8.0 0.00 0.00 0.00 58 1008.1
20260505065419 63 84 4.0 9.0 0.00 0.00 0.00 59 1008.0
20260505064916 63 66 1.0 8.0 0.00 0.00 0.00 61 1007.9
20260505064414 62 105 4.0 8.0 0.00 0.00 0.00 62 1007.9
20260505063912 62 78 0.0 3.0 0.00 0.00 0.00 62 1007.7
20260505063408 62 82 0.0 0.0 0.00 0.00 0.00 61 1007.9
20260505062904 63 74 0.0 5.0 0.00 0.00 0.00 60 1007.7
20260505062402 63 89 0.0 6.0 0.00 0.00 0.00 59 1007.6
20260505061858 63 83 0.0 2.0 0.00 0.00 0.00 57 1007.6
20260505061357 63 57 0.0 3.0 0.00 0.00 0.00 57 1007.7
20260505060854 63 61 3.0 7.0 0.00 0.00 0.00 60 1007.5
20260505060350 63 70 5.0 7.0 0.00 0.00 0.00 62 1007.5
20260505055846 63 67 1.0 5.0 0.00 0.00 0.00 61 1007.6
20260505055342 63 80 4.0 6.0 0.00 0.00 0.00 64 1007.4
20260505054840 63 68 2.0 5.0 0.00 0.00 0.00 63 1007.3
20260505054337 64 65 3.0 8.0 0.00 0.00 0.00 62 1007.3
20260505053835 64 80 4.0 8.0 0.00 0.00 0.00 60 1007.3
20260505053332 65 40 0.0 5.0 0.00 0.00 0.00 58 1007.4
20260505052828 66 56 3.0 10.0 0.00 0.00 0.00 57 1007.2
20260505052325 66 54 8.0 13.0 0.00 0.00 0.00 56 1007.2
20260505051823 66 56 10.0 14.0 0.00 0.00 0.00 55 1007.0
20260505051320 66 63 6.0 11.0 0.00 0.00 0.00 56 1007.0
20260505050818 66 64 7.0 11.0 0.00 0.00 0.00 57 1007.1
20260505050317 66 77 6.0 11.0 0.00 0.00 0.00 56 1007.2
20260505041746 68 60 5.0 9.0 0.00 0.00 0.00 54 1006.2
20260505041243 69 67 1.0 5.0 0.00 0.00 0.00 53 1006.2
20260505040741 69 80 4.0 10.0 0.00 0.00 0.00 50 1006.2
20260505040238 69 65 4.0 7.0 0.00 0.00 0.00 51 1006.2
20260505035735 70 62 1.0 5.0 0.00 0.00 0.00 51 1006.1
20260505035231 70 82 1.0 7.0 0.00 0.00 0.00 48 1006.1
20260505034728 70 75 4.0 7.0 0.00 0.00 0.00 48 1006.0
20260505034225 71 68 0.0 0.0 0.00 0.00 0.00 49 1006.1
20260505033721 71 59 3.0 7.0 0.00 0.00 0.00 46 1005.8
20260505033219 71 68 0.0 5.0 0.00 0.00 0.00 46 1005.7
20260505032717 70 56 0.0 0.0 0.00 0.00 0.00 48 1005.6
20260505032212 72 72 0.0 1.0 0.00 0.00 0.00 46 1005.4
20260505031710 73 51 3.0 8.0 0.00 0.00 0.00 42 1005.3
20260505031206 73 49 1.0 8.0 0.00 0.00 0.00 42 1005.3
20260505030703 71 20 0.0 2.0 0.00 0.00 0.00 43 1005.2
20260505030159 71 346 0.0 1.0 0.00 0.00 0.00 42 1005.0
20260505025655 72 328 1.0 2.0 0.00 0.00 0.00 42 1005.0
20260505025154 73 303 0.0 1.0 0.00 0.00 0.00 40 1004.7
20260505024651 73 314 1.0 2.0 0.00 0.00 0.00 38 1004.5
20260505024148 73 308 0.0 2.0 0.00 0.00 0.00 39 1004.7
20260505023646 74 300 0.0 2.0 0.00 0.00 0.00 39 1004.7
20260505023143 75 316 0.0 3.0 0.00 0.00 0.00 40 1004.5
20260505022640 75 300 1.0 2.0 0.00 0.00 0.00 39 1004.5
20260505022137 75 301 0.0 2.0 0.00 0.00 0.00 41 1004.7
20260505021634 76 337 2.0 5.0 0.00 0.00 0.00 39 1004.4
20260505021130 76 307 0.0 6.0 0.00 0.00 0.00 36 1004.7
20260505020626 77 288 0.0 3.0 0.00 0.00 0.00 40 1004.4
20260505020122 77 297 5.0 9.0 0.00 0.00 0.00 35 1004.4
20260505015620 77 348 3.0 9.0 0.00 0.00 0.00 35 1004.5
20260505015116 77 251 3.0 8.0 0.00 0.00 0.00 37 1004.4
20260505014613 78 298 2.0 8.0 0.00 0.00 0.00 38 1004.4
20260505014110 78 296 0.0 6.0 0.00 0.00 0.00 37 1004.2
20260505013607 78 255 0.0 7.0 0.00 0.00 0.00 37 1004.4
20260505013104 78 293 6.0 9.0 0.00 0.00 0.00 36 1004.2
20260505012602 78 276 7.0 10.0 0.00 0.00 0.00 37 1004.1
20260505012059 78 271 6.0 11.0 0.00 0.00 0.00 37 1004.2
20260505011554 79 269 6.0 9.0 0.00 0.00 0.00 38 1004.4
20260505011052 79 270 5.0 9.0 0.00 0.00 0.00 40 1004.3
20260505010547 79 236 7.0 13.0 0.00 0.00 0.00 37 1004.2
20260505010044 79 250 9.0 11.0 0.00 0.00 0.00 36 1004.3
20260505005540 79 249 5.0 9.0 0.00 0.00 0.00 37 1004.2
20260505005038 79 265 9.0 14.0 0.00 0.00 0.00 35 1004.0
20260505004535 79 261 6.0 13.0 0.00 0.00 0.00 36 1004.4
20260505004032 79 250 9.0 13.0 0.00 0.00 0.00 35 1004.3
20260505003529 79 255 6.0 14.0 0.00 0.00 0.00 36 1004.3
20260505003026 79 205 8.0 15.0 0.00 0.00 0.00 36 1004.4
20260505002521 79 276 9.0 15.0 0.00 0.00 0.00 34 1004.2
20260505002021 79 289 9.0 14.0 0.00 0.00 0.00 34 1004.3
20260505001517 79 244 10.0 15.0 0.00 0.00 0.00 34 1004.4
20260505001014 79 274 11.0 17.0 0.00 0.00 0.00 35 1004.8
20260505000512 79 270 11.0 16.0 0.00 0.00 0.00 35 1004.4
20260505000009 79 270 12.0 18.0 0.00 0.00 0.00 35 1004.5
20260504235506 80 248 6.0 11.0 0.00 0.00 0.00 39 1004.7
20260504235002 79 263 5.0 13.0 0.00 0.00 0.00 38 1004.5
20260504234500 79 276 9.0 14.0 0.00 0.00 0.00 38 1004.5
20260504233956 79 239 3.0 8.0 0.00 0.00 0.00 40 1005.0
20260504233451 79 263 2.0 10.0 0.00 0.00 0.00 40 1004.9
20260504232949 79 263 8.0 10.0 0.00 0.00 0.00 39 1004.9
20260504232446 79 261 10.0 13.0 0.00 0.00 0.00 41 1004.7
20260504231943 79 240 2.0 10.0 0.00 0.00 0.00 40 1004.9
20260504231439 79 263 3.0 6.0 0.00 0.00 0.00 39 1004.9
20260504230935 79 298 3.0 7.0 0.00 0.00 0.00 41 1005.0
20260504230432 79 272 0.0 2.0 0.00 0.00 0.00 42 1005.1
20260504225932 79 254 2.0 8.0 0.00 0.00 0.00 41 1005.1
20260504225428 79 270 3.0 10.0 0.00 0.00 0.00 41 1005.2
20260504224925 79 216 0.0 5.0 0.00 0.00 0.00 43 1005.1
20260504224421 78 234 3.0 8.0 0.00 0.00 0.00 41 1005.2
20260504223919 78 250 2.0 5.0 0.00 0.00 0.00 42 1005.3
20260504223414 78 254 9.0 10.0 0.00 0.00 0.00 41 1005.4
20260504222910 79 277 2.0 5.0 0.00 0.00 0.00 42 1005.4
20260504222408 78 292 3.0 10.0 0.00 0.00 0.00 40 1005.4
20260504221906 78 209 8.0 10.0 0.00 0.00 0.00 42 1005.4
20260504221403 78 273 0.0 3.0 0.00 0.00 0.00 43 1005.9
20260504220859 77 287 3.0 10.0 0.00 0.00 0.00 41 1005.7
20260504220356 77 261 5.0 11.0 0.00 0.00 0.00 41 1005.7
20260504215854 78 197 5.0 7.0 0.00 0.00 0.00 41 1005.7
20260504215349 77 262 3.0 10.0 0.00 0.00 0.00 43 1005.7
20260504214846 77 244 0.0 9.0 0.00 0.00 0.00 45 1005.9
20260504214343 76 243 0.0 9.0 0.00 0.00 0.00 46 1006.1
20260504213840 77 293 1.0 8.0 0.00 0.00 0.00 43 1006.2
20260504213335 77 263 0.0 3.0 0.00 0.00 0.00 44 1006.0
20260504212833 78 288 1.0 5.0 0.00 0.00 0.00 47 1006.1
20260504212329 77 272 0.0 1.0 0.00 0.00 0.00 44 1006.2
20260504211827 77 234 1.0 2.0 0.00 0.00 0.00 46 1006.2
20260504211322 77 242 2.0 6.0 0.00 0.00 0.00 46 1006.3
20260504210820 76 266 0.0 7.0 0.00 0.00 0.00 45 1006.4
20260504210317 76 230 1.0 5.0 0.00 0.00 0.00 47 1006.5
20260504205814 76 288 3.0 7.0 0.00 0.00 0.00 45 1006.3
20260504205312 75 291 3.0 7.0 0.00 0.00 0.00 44 1006.2
20260504204810 76 285 1.0 5.0 0.00 0.00 0.00 43 1006.4
20260504204308 76 272 3.0 5.0 0.00 0.00 0.00 43 1006.3
20260504203807 75 263 1.0 6.0 0.00 0.00 0.00 43 1006.6
20260504203304 75 242 4.0 7.0 0.00 0.00 0.00 47 1006.5
20260504202758 75 257 1.0 8.0 0.00 0.00 0.00 44 1006.6
20260504202256 75 232 4.0 6.0 0.00 0.00 0.00 42 1006.7
20260504201753 75 261 3.0 6.0 0.00 0.00 0.00 42 1006.8
20260504201250 75 277 0.0 3.0 0.00 0.00 0.00 43 1006.7
20260504200748 74 266 1.0 3.0 0.00 0.00 0.00 43 1006.8
20260504200243 74 273 0.0 1.0 0.00 0.00 0.00 46 1006.8
20260504195740 73 235 0.0 6.0 0.00 0.00 0.00 47 1007.0
20260504195236 73 225 0.0 2.0 0.00 0.00 0.00 44 1006.8
20260504194734 73 286 0.0 7.0 0.00 0.00 0.00 45 1007.0
20260504194229 74 230 2.0 5.0 0.00 0.00 0.00 43 1007.1
20260504193726 73 260 1.0 7.0 0.00 0.00 0.00 44 1007.2
20260504193224 73 224 2.0 5.0 0.00 0.00 0.00 41 1007.2
20260504192722 73 276 0.0 6.0 0.00 0.00 0.00 45 1007.4
20260504192220 73 282 3.0 5.0 0.00 0.00 0.00 43 1007.2
20260504191718 72 249 5.0 7.0 0.00 0.00 0.00 44 1007.2
20260504191215 72 218 0.0 8.0 0.00 0.00 0.00 45 1007.2
20260504190710 72 212 3.0 9.0 0.00 0.00 0.00 42 1007.4
20260504190206 72 242 0.0 3.0 0.00 0.00 0.00 41 1007.6
20260504185703 72 249 1.0 6.0 0.00 0.00 0.00 44 1007.6
20260504185159 72 253 0.0 0.0 0.00 0.00 0.00 47 1007.5
20260504184656 71 279 0.0 0.0 0.00 0.00 0.00 49 1007.6
20260504184151 72 261 0.0 7.0 0.00 0.00 0.00 45 1007.5
20260504183648 72 243 0.0 0.0 0.00 0.00 0.00 47 1007.4
20260504183145 71 65 0.0 0.0 0.00 0.00 0.00 53 1007.5
20260504182643 71 194 0.0 0.0 0.00 0.00 0.00 48 1007.6
20260504182140 73 157 0.0 0.0 0.00 0.00 0.00 45 1007.8
20260504181638 72 192 0.0 0.0 0.00 0.00 0.00 48 1007.7
20260504181135 71 184 0.0 0.0 0.00 0.00 0.00 50 1007.8
20260504180634 71 92 0.0 0.0 0.00 0.00 0.00 55 1007.8
20260504180132 71 171 0.0 0.0 0.00 0.00 0.00 52 1007.8
20260504175629 69 67 0.0 0.0 0.00 0.00 0.00 53 1007.6
20260504175126 69 76 0.0 2.0 0.00 0.00 0.00 53 1007.7
20260504174624 69 76 0.0 1.0 0.00 0.00 0.00 57 1007.9
20260504174120 68 147 0.0 5.0 0.00 0.00 0.00 56 1007.9
20260504173617 68 138 0.0 2.0 0.00 0.00 0.00 55 1007.9
20260504173115 67 126 0.0 8.0 0.00 0.00 0.00 54 1008.1
20260504172611 66 119 1.0 3.0 0.00 0.00 0.00 53 1008.0
20260504172108 66 78 1.0 7.0 0.00 0.00 0.00 55 1007.8
20260504171604 65 83 1.0 5.0 0.00 0.00 0.00 55 1008.1
20260504171101 65 85 1.0 6.0 0.00 0.00 0.00 52 1008.2
20260504170557 65 120 0.0 8.0 0.00 0.00 0.00 57 1008.1
20260504150941 55 75 8.0 11.0 0.00 0.00 0.00 69 1008.5
20260504150438 54 103 7.0 10.0 0.00 0.00 0.00 70 1008.7
20260504140904 50 68 11.0 14.0 0.00 0.00 0.00 78 1008.4
20260504140400 50 86 10.0 14.0 0.00 0.00 0.00 78 1008.6
20260504130325 49 85 5.0 11.0 0.00 0.00 0.00 78 1008.0
20260504120248 50 85 6.0 13.0 0.00 0.00 0.00 73 1008.3
20260504110716 50 73 3.0 9.0 0.00 0.00 0.00 74 1008.5
20260504110212 51 89 8.0 11.0 0.00 0.00 0.00 73 1008.4
20260504100131 53 97 8.0 10.0 0.00 0.00 0.00 69 1008.2